SCP
1 1 1 1 1 1 1 1 1 1 1 1 1 1 1 1 1 2 2 1 1 1 1 1 1 1 1 1 1 1 1 1 1 1 1 1 1 0 0 1 1 2 2
1 1 1 1 1 1 1 1 1 1 1 1 1 1 1 1 1 1 1 1 1 1 1 1 1 1 1 1 1 1 1 0 0 0 0 1 1 0 0 1 1 2 2
1 1 2 2 1 1 1 1 1 1 1 1 1 1 1 1 1 1 1 1 1 1 1 1 1 1 1 1 1 0 0 0 0 0 0 0 0 0 0 1 1 2 2
1 1 2 2 2 1 1 1 1 1 1 1 1 1 1 1 1 1 1 1 1 1 1 1 0 0 0 0 0 0 1 1 1 1 0 0 0 0 0 1 1 2 2
1 1 2 2 2 1 1 1 1 1 1 1 1 1 1 1 1 1 1 1 1 1 1 1 0 0 0 0 0 0 1 1 1 1 1 0 0 0 1 1 1 1 1
1 1 1 1 1 1 1 1 1 1 1 1 1 1 1 1 1 1 0 0 0 1 1 0 0 0 0 0 0 0 1 1 1 1 0 0 0 1 1 1 1 1 1
1 1 1 1 1 1 1 1 1 1 1 1 1 1 1 1 1 1 0 0 0 0 0 0 0 0 0 0 0 0 1 1 1 1 0 0 1 1 1 1 1 1 1
1 1 1 1 1 1 1 1 1 1 1 1 1 1 1 1 1 1 0 0 0 0 0 0 0 0 0 0 0 1 1 1 1 1 1 0 1 1 1 1 1 1 1
1 1 1 1 0 0 1 1 1 1 0 0 1 1 1 1 1 1 1 1 0 0 0 0 0 0 1 1 1 1 1 1 1 1 1 1 1 1 1 1 1 1 1
1 1 0 0 0 0 1 1 1 1 0 0 0 1 1 1 1 1 1 1 1 1 1 0 0 0 1 1 1 1 1 1 1 1 1 1 1 1 1 1 1 1 1
0 0 0 0 0 0 1 1 1 1 1 1 1 1 1 1 1 1 1 1 1 1 1 1 1 1 1 1 1 1 1 1 1 1 1 1 1 1 1 1 1 1 1
0 0 0 0 0 1 1 1 1 1 1 1 1 1 1 1 1 1 1 1 1 1 1 1 1 1 1 1 1 1 1 1 1 1 1 1 1 1 1 1 1 1 1
0 0 0 0 0 1 1 1 1 1 1 1 1 1 1 1 1 1 1 1 1 1 1 1 1 1 1 1 1 1 1 1 1 1 1 1 1 1 1 1 1 1 1
0 0 0 0 0 1 0 0 1 1 1 1 1 1 1 1 1 2 2 1 1 1 1 1 1 1 1 1 1 1 1 1 1 1 1 1 1 1 1 1 1 1 1
0 0 0 0 0 1 0 0 1 1 1 1 0 1 1 1 2 2 2 2 1 1 1 1 1 1 1 1 1 1 1 1 1 1 1 1 1 1 2 2 2 2 2
0 0 0 0 0 1 0 0 1 1 1 1 0 0 1 1 1 1 1 1 1 1 1 1 1 1 1 0 0 0 1 1 1 1 1 1 1 2 2 2 2 2 2
0 0 0 0 0 1 1 1 1 1 1 0 0 0 1 1 1 1 1 1 1 1 1 1 1 1 1 0 0 0 0 0 0 1 1 1 1 2 2 2 2 3 3
0 0 0 0 0 1 1 1 1 1 0 0 0 0 0 1 1 1 0 0 0 0 1 1 1 0 0 0 0 0 0 0 1 1 1 1 1 2 2 2 2 2 3
1 1 1 1 1 1 1 1 1 1 0 0 0 0 0 0 1 1 1 1 1 1 1 1 1 0 0 0 0 0 0 0 1 1 1 1 1 1 2 2 2 3 2
1 1 1 1 1 1 2 1 1 0 0 0 0 0 0 0 0 1 1 1 1 1 0 0 0 0 0 0 0 0 0 0 0 0 1 1 1 1 2 2 2 2 2
1 1 2 2 2 2 2 1 1 0 0 0 0 0 0 0 0 0 1 1 1 0 0 0 0 0 0 0 0 0 0 0 0 0 1 1 1 1 1 2 2 2 2
2 2 2 2 2 2 2 1 1 0 0 0 0 0 0 0 0 0 0 0 0 0 0 0 0 0 0 0 0 1 1 1 1 0 0 1 1 1 1 1 1 1 1
3 3 3 3 2 2 1 1 1 0 0 0 0 0 0 0 0 0 0 0 0 0 0 0 1 1 1 1 1 1 1 1 1 1 1 1 1 1 1 1 1 1 1
4 4 4 3 3 2 1 1 1 1 0 0 0 0 0 0 0 0 0 0 0 0 0 1 1 1 1 1 1 1 1 1 1 1 1 1 1 1 1 1 1 1 2
4 5 5 4 3 2 2 1 1 1 1 1 1 1 1 1 1 1 1 1 1 1 1 1 1 1 1 2 2 2 2 2 2 2 2 2 2 2 1 1 2 2 2
5 6 6 4 3 3 2 2 1 1 1 1 1 1 1 1 1 1 1 1 1 1 1 1 1 1 2 2 2 2 2 2 2 2 2 2 2 2 1 1 2 3 3
Wind_Speed
1 1 4 7 9 10 11 11 12 13 14 14 15 15 15 15 14 13 13 12 12 12 12 11 12 12 12 12 11 11 10 10 10 11 10 10 9 9 9 9 9 7 9
3 3 6 7 9 10 11 11 12 13 14 14 15 14 14 14 13 13 12 12 11 11 11 11 11 11 11 11 10 10 10 9 10 10 9 8 8 8 8 9 8 6 9
4 3 5 8 9 10 11 11 12 13 13 14 14 14 14 13 13 12 12 11 11 11 11 11 10 10 10 10 9 9 9 9 9 9 8 4 5 7 7 8 9 9 9
5 3 4 8 10 11 11 11 12 13 13 13 13 13 13 12 12 12 11 11 11 10 10 10 10 10 9 9 8 7 7 8 7 7 4 3 3 7 7 7 8 8 8
4 3 5 9 10 11 11 11 12 12 13 13 13 12 12 12 12 11 10 10 10 10 10 9 9 9 8 7 7 6 6 6 6 5 3 3 2 6 7 7 7 7 8
4 4 5 9 10 10 11 11 11 12 12 12 12 12 11 11 11 10 10 9 9 9 9 8 8 7 6 6 6 5 5 5 4 3 3 3 2 5 7 7 7 7 7
5 3 4 9 10 10 11 11 11 11 11 11 11 11 11 11 10 9 9 8 8 7 7 7 7 6 5 5 4 4 4 4 4 3 3 3 3 5 7 7 7 6 7
5 4 4 8 9 9 10 10 10 10 11 10 10 10 10 9 9 8 8 7 6 6 6 6 5 5 5 4 3 3 3 3 4 3 3 3 4 5 6 6 6 6 7
4 4 3 3 5 8 9 9 9 9 10 10 9 8 8 7 7 7 6 5 5 4 4 4 4 4 4 3 2 3 3 3 3 2 3 2 4 6 6 6 6 6 7
4 3 3 3 3 3 4 7 8 8 9 9 8 8 7 6 5 5 4 4 3 2 3 3 3 2 2 2 1 2 2 2 2 2 2 3 6 6 6 6 7 7 7
3 2 2 2 2 2 2 4 5 7 7 7 6 7 5 2 2 2 2 2 2 2 2 2 1 1 2 2 1 1 1 1 1 1 2 4 6 7 7 7 7 7 7
3 2 2 2 3 2 2 2 2 2 3 3 2 3 2 2 1 1 0 1 1 1 1 0 0 1 1 1 1 2 0 1 1 2 2 5 6 7 7 7 7 7 7
3 3 2 2 3 2 1 2 1 1 2 2 2 2 2 2 1 1 1 1 1 1 1 1 1 1 1 0 1 1 1 1 1 2 3 5 6 7 7 7 8 8 8
4 3 2 3 3 2 2 1 2 1 1 1 1 2 2 1 0 0 0 0 0 0 1 1 0 1 1 1 1 1 2 2 2 2 3 5 6 7 8 8 8 8 8
4 4 3 3 3 2 2 1 2 1 1 1 1 1 2 2 1 1 0 0 0 0 0 0 1 1 1 2 2 2 3 3 3 3 2 5 6 7 8 9 9 9 9
5 4 3 4 3 3 2 2 1 1 1 1 1 1 2 2 1 1 1 0 0 0 1 1 1 1 1 1 2 3 3 3 3 3 3 3 6 6 7 8 8 8 9
5 4 4 4 4 4 3 3 2 1 2 1 1 1 2 2 2 2 1 1 1 1 0 0 1 1 1 1 2 3 2 2 3 3 3 3 3 5 6 7 8 8 8
5 4 4 4 4 4 3 3 2 2 2 1 1 1 1 2 2 2 1 1 1 0 1 1 1 1 2 2 2 3 2 2 3 3 2 2 2 3 4 7 7 7 8
5 5 4 3 4 4 3 2 2 2 2 1 1 1 1 2 2 2 1 1 1 0 0 1 0 1 1 2 2 2 2 2 3 3 3 3 3 3 3 4 7 7 8
4 4 4 3 3 4 3 2 2 1 1 1 1 1 2 2 2 2 1 1 1 0 0 1 1 1 1 1 2 2 2 2 2 2 3 2 2 3 3 4 3 4 7
4 4 4 4 4 3 2 2 2 1 1 0 1 1 1 2 2 2 1 1 1 1 1 1 0 1 1 0 1 2 2 2 1 1 1 1 2 2 3 3 3 3 3
5 4 4 4 4 4 3 2 2 2 1 1 0 0 1 2 2 2 2 2 1 1 1 1 1 0 0 1 1 1 3 3 2 1 1 1 2 2 2 3 3 3 3
5 5 5 4 4 4 3 2 2 2 1 1 0 0 1 1 2 2 2 2 2 2 2 2 1 1 1 0 1 1 0 2 3 2 2 1 2 2 2 3 3 3 4
5 5 4 4 4 4 4 4 4 2 2 2 1 1 1 1 1 2 2 2 2 2 2 2 2 1 2 1 0 1 1 2 1 3 3 2 2 2 3 3 3 3 3
4 4 4 3 3 3 4 4 4 3 2 1 1 1 1 1 1 1 1 1 2 2 2 2 1 2 2 2 1 1 1 1 2 2 4 4 3 2 2 3 3 3 3
3 4 4 4 3 3 3 4 4 4 3 2 2 1 1 1 1 1 1 1 2 1 2 2 2 2 2 2 2 2 2 2 2 3 3 4 4 3 3 3 2 2 3
Wind_Direction
172 174 144 132 125 123 121 122 122 124 124 124 125 126 127 127 126 126 127 127 129 130 132 131 127 126 125 124 122 122 122 122 126 127 126 126 126 126 127 125 122 122 124
151 150 137 129 124 121 121 123 123 124 125 125 126 127 128 129 128 129 128 130 131 130 131 130 129 129 127 124 122 122 123 122 123 125 125 125 127 128 131 131 131 130 131
127 127 134 128 125 122 122 122 123 125 125 125 128 128 128 129 130 131 132 133 133 131 129 129 128 131 128 126 126 126 124 123 120 119 119 118 128 130 135 138 137 133 132
122 116 126 127 125 125 124 125 125 125 125 126 127 128 129 130 130 130 131 134 133 130 128 128 128 128 127 127 128 129 127 125 126 124 111 117 131 137 140 140 140 138 136
116 118 136 131 127 128 128 128 127 126 127 128 128 128 129 130 129 128 127 129 130 129 129 129 129 129 128 126 129 132 132 133 137 128 119 117 124 146 145 144 143 143 142
120 121 138 133 129 129 131 130 129 127 128 128 128 128 128 128 128 127 126 126 130 129 128 127 126 127 127 127 130 136 141 141 131 124 127 137 147 159 156 155 154 153 148
122 118 131 132 130 130 134 133 131 129 127 128 128 129 130 130 129 128 126 125 128 130 131 131 130 128 126 124 124 125 128 138 134 134 142 153 168 165 164 168 168 166 159
120 115 119 134 132 134 137 135 133 132 131 131 132 131 131 130 131 129 128 128 129 133 137 139 139 138 137 131 124 122 115 122 135 145 155 168 181 182 182 181 176 174 169
101 102 101 116 129 138 140 139 139 137 136 138 138 135 133 133 132 130 126 126 125 134 143 144 140 133 122 117 116 115 120 136 136 152 171 180 192 191 192 189 186 182 183
98 98 101 97 99 113 131 143 142 140 140 141 141 140 137 136 136 134 132 135 140 146 152 146 137 123 105 87 91 102 121 123 156 178 185 200 204 202 203 198 196 193 193
121 104 106 113 111 112 120 140 140 141 140 138 138 143 136 104 99 120 147 153 160 166 156 146 140 107 85 50 45 66 85 131 169 190 203 214 214 214 212 210 207 203 201
162 156 144 144 137 130 139 115 104 114 112 107 104 110 97 92 97 124 130 179 176 168 158 153 152 76 55 18 3 24 46 206 214 225 229 226 224 222 221 218 213 209 208
167 158 158 157 142 140 123 114 100 95 97 100 104 110 105 92 85 61 27 346 360 13 22 15 21 26 5 343 321 313 247 234 237 241 241 235 232 228 227 227 225 217 215
156 168 157 152 144 148 143 127 117 120 128 131 127 129 131 131 129 110 104 328 18 28 27 9 345 313 304 293 275 270 255 243 245 246 244 240 239 235 233 233 233 229 224
168 177 175 160 160 155 147 154 137 150 150 150 145 147 154 160 179 183 219 263 278 176 182 289 283 286 289 293 276 260 253 248 247 244 249 244 242 241 241 241 238 237 235
178 183 177 165 167 161 166 169 161 159 148 149 158 173 169 170 180 190 225 261 266 230 209 237 257 264 279 289 290 277 262 254 239 235 236 248 249 243 246 246 243 244 243
180 178 175 168 162 165 174 179 163 155 150 157 174 179 176 180 185 193 198 229 249 240 215 243 282 287 288 294 292 288 274 254 242 242 239 235 245 245 247 251 250 248 247
171 173 182 176 163 167 165 162 157 150 151 162 174 180 194 196 188 188 201 230 230 205 201 208 244 275 287 290 287 288 290 273 256 250 247 243 238 246 252 255 257 256 255
174 172 171 165 161 159 148 139 144 144 154 163 168 187 209 209 195 185 197 217 197 185 229 257 218 208 265 290 284 278 282 268 262 258 253 250 241 244 249 258 257 256 257
171 170 166 157 152 140 126 115 109 106 134 154 195 220 203 202 195 171 185 204 185 173 270 282 265 245 253 281 295 304 291 277 267 259 258 259 252 252 254 259 259 264 263
163 169 172 162 158 143 135 140 138 154 162 171 221 214 201 194 188 174 187 194 186 194 230 242 236 259 300 359 3 337 329 319 296 272 258 258 268 265 260 257 254 257 269
173 176 175 176 170 165 160 152 149 152 170 186 221 255 206 191 188 188 186 199 199 200 230 216 169 204 285 89 97 25 344 338 334 338 314 262 279 279 274 272 260 258 263
179 183 186 189 181 172 160 128 111 85 65 70 80 268 251 205 199 196 195 196 201 194 222 225 196 180 213 324 123 132 136 291 315 318 306 300 302 294 287 284 273 268 264
191 182 184 185 181 175 160 158 161 170 187 209 199 211 260 223 209 206 199 198 203 210 229 235 194 189 181 212 223 195 202 195 250 309 310 301 301 295 294 294 286 275 271
181 171 170 170 180 175 164 169 170 184 197 193 170 173 245 272 227 218 208 200 211 223 237 239 209 199 197 203 205 204 213 218 218 236 286 308 312 290 283 281 276 276 275
172 164 163 159 172 174 174 175 180 187 181 176 193 206 234 250 255 257 219 208 217 227 237 232 222 214 216 217 217 209 205 211 216 219 253 284 297 297 294 277 270 272 276